Theta_e
330 329 328 328 325 324 325 327 331 331 334 335 335 334 334 334 334 336 346 350 352 352 353 356 355 357 356 355 354 354 355 356 357 358 354 351 352 345 335 335 329 328 333 332
334 330 329 329 328 327 325 325 326 328 330 332 333 334 334 334 334 337 344 350 351 353 354 356 356 357 357 356 355 355 356 357 358 357 351 352 350 345 340 337 328 337 338 337
336 334 333 333 331 330 329 327 325 327 328 329 330 332 335 339 337 338 339 348 351 353 354 356 355 356 357 356 356 357 357 359 358 356 353 351 350 347 342 337 335 339 339 339
337 335 337 333 332 331 330 329 328 326 327 328 330 332 333 341 339 340 340 342 349 351 352 353 353 355 354 356 357 358 359 359 357 356 352 351 350 347 343 338 336 338 339 340
339 338 334 332 331 332 332 332 330 328 328 328 330 333 338 339 340 343 343 344 347 348 349 351 351 352 353 354 357 358 358 358 356 353 352 351 350 348 344 341 338 338 339 340
341 339 340 343 341 339 340 337 331 330 329 330 330 334 337 339 341 340 340 344 348 346 347 350 350 351 354 356 357 357 356 356 354 352 352 351 348 347 344 342 340 340 340 341
339 340 338 341 338 338 339 337 343 332 331 330 333 335 343 341 342 342 344 347 346 347 348 350 350 353 355 355 356 355 355 354 353 352 351 349 348 345 343 342 340 341 341 340
339 342 343 337 339 341 345 345 342 342 341 341 341 344 345 347 347 347 349 349 350 352 352 349 353 354 355 355 355 355 355 354 352 351 349 347 345 343 341 340 339 340 341 340
342 342 338 335 339 337 338 342 347 343 342 343 344 345 347 348 349 349 348 349 349 351 352 353 353 354 355 355 355 354 353 352 350 347 347 345 343 343 341 340 340 341 341 340
342 338 337 334 331 332 334 335 338 343 344 344 344 343 344 344 345 346 346 347 346 349 352 353 352 353 351 351 351 350 351 349 347 346 344 342 343 342 342 341 340 340 340 338
340 337 332 333 333 330 330 331 332 336 340 343 345 346 347 349 348 348 349 349 349 351 352 352 352 350 350 349 350 349 348 347 344 342 340 339 337 336 336 337 337 338 335 333
339 335 336 334 330 328 330 330 330 331 333 333 335 338 342 347 348 349 348 348 348 349 349 347 348 346 345 348 347 346 346 345 343 342 341 340 335 327 329 328 327 329 332 334
338 334 331 328 323 322 323 323 324 324 325 326 329 330 333 339 344 345 347 348 347 346 346 347 345 345 345 344 344 344 343 341 338 338 337 336 334 332 329 322 327 328 327 327
332 329 326 322 323 322 320 320 320 321 321 321 323 324 326 331 333 337 344 345 343 343 343 345 344 343 343 343 341 336 334 332 334 333 332 332 331 331 330 329 327 320 317 317
323 323 323 322 321 322 321 320 321 322 322 322 321 322 323 324 326 330 335 339 343 343 342 342 342 341 340 337 335 334 333 331 331 330 330 330 331 332 331 329 327 323 315 313
321 321 322 323 323 323 322 321 322 322 322 322 323 323 322 322 322 324 328 334 336 340 341 341 341 339 336 335 333 334 333 331 330 330 331 332 332 330 328 328 326 324 322 321
321 321 320 322 324 323 323 323 323 323 323 323 322 322 323 322 323 325 326 331 337 339 340 340 340 338 337 335 334 335 332 330 330 329 328 328 328 328 327 326 326 325 324 322
323 322 324 323 323 323 324 324 324 325 326 326 326 327 327 326 327 327 329 333 336 336 337 337 336 336 336 335 334 332 331 329 328 329 329 329 328 328 327 326 325 324 323 319
324 324 324 324 324 325 325 325 324 324 325 327 327 329 328 329 330 330 333 334 334 334 334 332 331 333 334 333 332 331 330 330 329 329 329 328 327 326 326 325 324 323 321 320
323 323 323 323 324 325 326 324 324 325 325 326 328 328 329 329 330 330 330 330 330 331 332 330 332 332 332 327 328 329 329 329 329 329 328 327 326 326 325 324 323 321 320 319
320 320 320 321 322 322 324 325 325 325 325 326 327 328 328 328 328 327 327 330 329 327 327 328 328 328 327 324 324 325 325 326 326 326 326 325 325 325 325 324 322 320 319 318
320 320 320 319 319 320 320 322 324 324 324 324 325 326 326 326 326 326 326 325 323 322 323 324 322 321 320 319 321 320 321 322 323 324 324 325 325 324 324 323 321 319 319 316
320 319 319 319 320 320 319 319 319 320 321 322 322 322 323 323 323 323 325 323 320 317 319 319 317 317 315 318 317 317 317 316 316 316 317 319 321 321 321 321 319 318 317 315
321 320 321 320 319 318 320 320 319 319 319 318 318 321 321 319 321 321 321 319 318 317 318 316 315 312 312 315 314 313 313 314 315 315 314 313 314 315 317 318 320 319 317 315
321 321 320 320 319 318 317 319 319 318 318 317 317 316 318 316 316 316 317 319 318 318 319 317 314 312 313 314 314 313 312 311 311 311 310 310 310 311 313 314 315 315 316 316
320 318 318 320 319 316 315 315 315 316 315 316 315 316 315 316 316 316 317 316 316 317 316 316 317 315 315 315 314 313 313 312 311 311 311 310 310 309 310 312 312 312 312 312
314 312 315 315 315 315 314 314 315 315 315 315 315 315 315 315 315 315 315 316 316 316 316 316 316 316 315 315 315 314 314 313 312 312 312 312 311 310 309 309 309 309 309 309
Wind_Speed
25 23 24 25 25 26 29 29 27 24 29 22 23 18 20 18 16 15 10 13 15 17 18 18 25 26 28 28 27 27 27 27 28 28 28 29 32 33 37 35 36 29 20 19
21 24 24 21 25 27 28 28 29 31 30 22 23 25 21 21 19 18 15 15 16 17 18 20 25 26 25 25 25 24 25 27 25 26 26 31 33 34 33 35 39 25 18 17
19 21 23 25 27 27 29 28 28 28 25 24 28 24 25 21 22 19 19 16 15 19 20 19 24 24 24 24 24 25 26 24 24 26 26 28 30 31 31 33 28 21 17 18
15 17 21 20 24 26 28 28 30 28 25 23 27 22 23 23 20 19 18 18 14 14 15 21 23 24 23 24 25 24 24 25 24 24 25 25 28 31 33 33 32 26 21 18
14 16 13 15 13 14 24 28 25 26 23 25 22 16 16 17 16 19 16 14 12 16 20 23 25 25 26 25 24 22 22 22 23 22 21 22 25 27 28 28 28 25 23 21
10 19 18 6 8 8 10 14 24 25 25 24 19 15 16 10 12 14 10 10 11 18 22 24 25 27 27 25 23 22 22 21 19 18 17 18 19 21 23 25 25 25 24 20
17 13 9 6 7 2 6 5 21 22 26 22 21 15 3 5 8 6 6 9 14 17 18 21 23 25 23 23 20 18 18 16 16 17 19 19 19 19 19 20 19 19 20 18
12 13 16 6 4 5 6 12 12 11 12 15 12 9 10 10 12 14 14 16 19 19 19 21 22 22 21 19 18 19 18 17 15 12 10 13 13 15 17 17 17 18 18 17
6 4 6 4 2 2 3 6 10 0 6 10 13 12 15 16 17 17 15 15 21 22 22 19 20 21 20 19 18 18 17 15 14 14 12 8 11 12 14 16 15 15 12 10
10 5 8 11 11 10 14 7 4 9 12 14 16 16 13 15 16 17 16 15 20 21 19 18 16 15 18 16 15 15 14 12 13 13 14 9 8 11 10 10 12 12 9 9
13 12 13 11 12 12 12 11 10 15 16 15 14 13 12 13 13 12 14 18 18 16 17 17 15 16 18 20 19 16 15 15 14 15 15 13 10 6 3 4 5 9 8 8
8 12 12 10 10 8 10 9 10 15 17 16 16 15 14 13 13 11 11 16 16 16 14 15 15 15 17 16 17 17 16 14 14 14 13 12 12 8 7 5 9 6 6 6
7 11 17 14 10 7 5 6 10 15 15 15 15 13 14 13 13 13 13 15 14 16 13 15 17 15 13 15 23 17 13 14 13 11 11 11 10 10 10 7 6 6 7 9
14 17 15 13 8 11 4 5 10 11 12 11 13 14 13 11 12 12 10 12 12 13 10 12 14 17 14 13 17 17 13 11 9 8 10 10 10 9 7 8 9 9 9 12
16 17 15 12 7 7 3 2 11 8 9 9 11 10 12 10 10 9 8 6 7 9 10 10 13 14 16 17 17 14 11 10 10 11 12 11 12 11 11 11 11 13 13 11
15 13 11 11 8 5 3 5 9 6 5 3 6 8 7 7 6 5 4 3 2 7 8 9 12 16 16 14 13 10 7 11 10 11 11 11 11 12 11 12 13 13 14 14
15 8 10 7 6 3 6 5 6 6 5 5 4 3 1 2 3 1 2 1 4 7 8 9 10 11 12 12 11 8 12 12 9 10 11 10 10 11 11 11 12 12 11 11
11 14 11 8 6 3 6 4 6 7 7 7 4 4 4 2 3 2 1 3 8 10 11 10 8 7 8 9 10 10 9 11 11 9 8 8 9 9 11 11 12 11 11 11
11 9 7 7 7 6 7 7 8 10 11 10 10 10 10 10 8 4 5 8 11 11 9 9 13 10 9 7 8 8 8 7 6 5 6 5 9 10 10 11 12 12 10 13
10 10 11 11 12 11 9 11 11 11 11 12 11 11 12 11 10 11 12 13 12 11 9 9 8 8 7 5 3 3 4 5 6 6 8 9 10 9 10 9 11 13 13 10
11 10 11 10 10 12 12 10 11 12 12 12 12 11 11 11 11 7 9 8 11 11 12 9 7 8 6 4 2 2 3 4 6 7 8 10 8 10 12 13 14 14 13 16
9 10 11 11 10 12 12 12 12 11 12 12 12 11 11 10 9 12 11 9 9 5 7 8 9 7 6 2 1 1 1 3 5 5 6 7 8 9 9 15 15 15 18 15
9 9 9 9 7 7 9 10 11 10 10 10 9 9 8 7 8 4 6 3 6 6 6 9 8 8 4 1 1 1 2 3 3 3 4 5 7 9 11 11 14 14 11 8
9 8 7 6 7 7 6 5 6 6 8 7 8 6 6 6 6 4 3 3 3 2 2 5 5 5 1 3 3 3 4 5 5 6 6 4 9 11 12 13 11 11 14 15
7 6 5 7 5 7 6 4 3 2 4 3 3 4 2 5 5 6 5 1 2 5 7 7 5 5 7 7 5 6 5 6 6 6 5 7 10 14 14 14 13 13 16 16
10 9 8 6 6 7 7 8 8 6 7 7 7 6 5 4 3 4 4 2 4 3 8 4 8 9 9 8 8 8 8 8 8 9 8 8 8 8 12 14 15 14 14 16
8 12 10 10 11 10 10 9 9 11 10 12 11 9 8 8 8 8 8 11 11 10 10 10 11 9 10 12 12 11 12 12 11 11 12 11 10 9 10 11 12 12 13 14
Wind_Direction
230 244 223 221 210 225 234 240 239 239 241 227 239 232 249 258 258 268 249 220 200 197 198 194 198 201 203 207 206 205 205 205 206 205 207 209 201 192 194 194 196 207 226 223
233 234 241 241 229 230 225 233 240 244 247 242 225 241 242 247 251 251 246 224 205 199 199 197 197 197 194 196 199 199 199 204 201 203 209 208 206 199 194 196 199 207 202 211
238 225 238 239 240 233 234 231 235 237 238 235 243 238 236 240 242 244 245 229 209 205 201 196 192 190 188 187 187 189 197 196 199 203 208 211 209 206 199 203 205 217 211 220
238 230 237 244 242 237 243 236 232 235 241 229 236 230 232 229 238 240 240 244 215 204 198 193 186 179 178 179 182 186 189 193 196 199 205 207 208 206 206 209 213 217 218 228
235 230 237 228 217 258 243 238 240 235 232 234 221 227 252 245 238 238 243 241 222 198 185 183 177 173 172 172 173 179 188 192 192 197 203 203 206 210 213 210 214 218 224 230
202 244 236 52 21 353 327 256 236 234 218 225 230 233 244 211 217 229 233 218 193 180 172 177 172 166 164 165 166 175 184 189 188 190 200 207 213 214 206 213 216 220 219 227
229 229 211 31 342 145 211 289 321 242 235 226 230 238 327 186 183 149 160 158 158 156 162 160 156 155 152 154 165 171 170 167 171 184 194 195 198 213 206 212 219 221 228 234
228 217 226 5 209 236 354 326 312 276 252 239 215 169 150 137 126 120 125 127 125 121 131 139 140 145 142 144 150 156 156 157 166 172 184 199 190 207 206 202 217 233 234 238
241 190 86 77 83 50 28 360 349 77 153 155 161 152 143 136 121 115 116 118 120 120 117 119 129 138 136 141 148 151 147 149 153 156 164 181 189 198 202 204 215 227 235 231
167 126 94 101 82 62 70 71 55 58 92 107 115 114 117 106 107 108 101 100 107 109 109 107 108 108 118 123 128 131 129 136 143 144 126 172 190 206 212 208 220 228 227 216
102 127 110 79 69 72 76 71 74 79 85 86 83 78 78 76 79 84 90 88 85 88 97 100 103 107 117 124 126 122 134 135 119 120 129 134 132 141 164 175 204 230 183 192
163 148 115 89 59 41 63 77 70 71 63 54 62 64 66 66 67 58 68 84 89 91 90 94 98 106 118 125 124 126 120 132 137 144 157 166 164 145 177 191 193 194 174 180
114 110 98 95 52 38 63 66 66 72 74 72 55 54 59 56 46 51 66 82 87 91 117 123 122 122 123 138 128 114 132 136 143 153 156 157 163 167 153 108 134 151 155 172
115 117 83 61 59 314 42 96 87 83 75 74 77 72 61 52 53 54 55 73 84 92 105 119 123 120 122 112 112 122 125 136 147 149 161 164 168 175 174 167 153 127 126 129
62 77 91 99 75 358 279 177 82 58 62 63 55 55 59 48 46 37 65 104 116 115 117 139 133 120 131 140 135 140 149 158 156 158 160 164 171 172 179 171 166 155 145 141
68 53 70 95 146 222 63 38 86 97 81 78 76 60 49 50 15 46 43 39 148 127 149 149 140 145 152 153 156 153 145 158 168 168 164 167 168 176 176 174 173 176 179 168
77 69 55 346 19 46 65 48 57 64 62 56 79 136 134 123 172 99 323 92 135 136 135 140 140 151 161 170 181 182 169 159 162 161 172 175 179 186 182 183 188 187 192 179
155 160 165 180 173 131 91 78 74 77 61 54 56 69 105 136 87 64 31 140 115 98 103 115 126 141 160 178 184 180 181 168 186 185 173 181 187 190 191 196 194 191 190 162
105 103 112 108 104 88 78 69 66 57 52 53 61 64 62 64 69 93 102 101 120 113 97 108 123 121 128 151 170 181 198 185 206 198 200 168 189 205 203 206 202 199 192 175
90 96 92 81 66 60 68 68 64 64 57 60 65 68 76 67 71 82 82 70 60 88 100 111 116 116 117 140 169 194 182 206 205 199 205 209 210 206 215 216 199 194 199 198
83 78 72 66 69 60 63 61 61 53 51 50 58 62 65 66 61 63 106 82 82 88 95 88 96 111 108 122 195 158 195 206 218 208 205 224 213 229 216 202 197 200 201 214
68 68 65 58 64 66 57 56 56 56 53 54 52 52 58 57 73 69 57 77 97 90 98 100 90 77 99 152 107 161 199 223 238 225 220 228 236 222 212 212 201 209 214 217
54 50 53 43 48 54 63 54 57 51 52 49 47 48 46 45 28 33 106 92 115 84 90 93 117 113 112 360 347 240 243 243 241 240 259 259 249 238 225 223 227 233 223 223
31 39 32 30 44 47 36 51 49 48 44 37 35 40 15 15 111 58 99 142 132 149 61 118 139 139 355 297 300 301 287 272 268 267 266 267 264 255 247 243 240 242 236 236
11 357 357 3 347 42 33 29 276 52 22 30 53 66 57 69 17 18 349 36 196 234 248 191 215 223 272 281 282 286 284 272 276 289 277 282 280 267 252 251 246 237 233 242
13 357 351 2 2 3 5 12 6 19 7 7 5 17 358 350 335 310 328 315 306 273 283 245 230 217 259 272 273 271 273 267 247 243 262 280 287 279 261 241 243 236 241 251
59 25 34 37 29 18 14 350 336 352 358 358 336 340 346 327 328 310 299 295 295 294 288 283 278 258 262 272 267 253 256 261 258 267 273 271 270 270 257 249 247 250 252 251